owner,sensor,date,latitude,longitude,vertical_datum,sea_water_speed,direction_of_sea_water_velocity,upward_sea_water_velocity,qcFlag
BP,ioos:station:wmo:42369:4,2021-07-01T00:00:00Z,27.2001,-90.2848,1343.0,4.5,237.7,-9999.0,'111111111,111111111,999999991'
BP,ioos:station:wmo:42369:4,2021-07-01T00:20:00Z,27.2001,-90.2848,1343.0,5.1,248.0,-9999.0,'111111111,111111111,999999991'
BP,ioos:station:wmo:42369:4,2021-07-01T00:40:00Z,27.2001,-90.2848,1343.0,4.6,252.3,-9999.0,'111111111,111111111,999999991'
BP,ioos:station:wmo:42369:4,2021-07-01T01:00:00Z,27.1999,-90.2846,1343.0,5.6,269.0,-9999.0,'111111111,111111111,999999991'
BP,ioos:station:wmo:42369:4,2021-07-01T01:20:00Z,27.1999,-90.2846,1343.0,4.6,262.6,-9999.0,'111111111,111111111,999999991'
BP,ioos:station:wmo:42369:4,2021-07-01T01:40:00Z,27.1999,-90.2846,1343.0,5.2,268.9,-9999.0,'111111111,111111111,999999991'
BP,ioos:station:wmo:42369:4,2021-07-01T02:00:00Z,27.1999,-90.2843,1343.0,6.0,268.1,-9999.0,'111111111,111111111,999999991'
BP,ioos:station:wmo:42369:4,2021-07-01T02:20:00Z,27.1999,-90.2843,1343.0,5.1,277.8,-9999.0,'111111111,111111111,999999991'
BP,ioos:station:wmo:42369:4,2021-07-01T02:40:00Z,27.1999,-90.2842,1343.0,6.0,286.3,-9999.0,'111111111,111111111,999999991'
BP,ioos:station:wmo:42369:4,2021-07-01T03:00:00Z,27.1999,-90.2842,1343.0,5.9,293.1,-9999.0,'111111111,111111111,999999991'
BP,ioos:station:wmo:42369:4,2021-07-01T03:20:00Z,27.1999,-90.2842,1343.0,6.5,293.4,-9999.0,'111111111,111111111,999999991'
BP,ioos:station:wmo:42369:4,2021-07-01T03:40:00Z,27.1999,-90.2842,1343.0,6.8,292.4,-9999.0,'111111111,111111111,999999991'
BP,ioos:station:wmo:42369:4,2021-07-01T04:00:00Z,27.1997,-90.2838,1343.0,6.4,294.1,-9999.0,'111111111,111111111,999999991'
BP,ioos:station:wmo:42369:4,2021-07-01T04:20:00Z,27.1997,-90.2839,1343.0,6.3,300.7,-9999.0,'111111111,111111111,999999991'
BP,ioos:station:wmo:42369:4,2021-07-01T04:40:00Z,27.1997,-90.2838,1343.0,6.2,311.7,-9999.0,'111111111,111111111,999999991'
BP,ioos:station:wmo:42369:4,2021-07-01T05:00:00Z,27.1997,-90.2835,1343.0,7.2,304.8,-9999.0,'111111111,111111111,999999991'
BP,ioos:station:wmo:42369:4,2021-07-01T05:20:00Z,27.1997,-90.2835,1343.0,6.4,307.4,-9999.0,'111111111,111111111,999999991'
BP,ioos:station:wmo:42369:4,2021-07-01T05:40:00Z,27.1996,-90.2834,1343.0,5.8,308.7,-9999.0,'111111111,111111111,999999991'
BP,ioos:station:wmo:42369:4,2021-07-01T06:00:00Z,27.1996,-90.2834,1343.0,5.3,301.9,-9999.0,'111111111,111111111,999999991'
BP,ioos:station:wmo:42369:4,2021-07-01T06:20:00Z,27.1996,-90.2834,1343.0,6.5,315.0,-9999.0,'111111111,111111111,999999991'
BP,ioos:station:wmo:42369:4,2021-07-01T06:40:00Z,27.1996,-90.2839,1343.0,6.7,324.2,-9999.0,'111111111,111111111,999999991'
BP,ioos:station:wmo:42369:4,2021-07-01T07:00:00Z,27.1996,-90.2839,1343.0,6.0,333.4,-9999.0,'111111111,111111111,999999991'
BP,ioos:station:wmo:42369:4,2021-07-01T07:20:00Z,27.1996,-90.2841,1343.0,6.1,329.7,-9999.0,'111111111,111111111,999999991'
BP,ioos:station:wmo:42369:4,2021-07-01T07:40:00Z,27.1996,-90.2842,1343.0,6.9,337.1,-9999.0,'111111111,111111111,999999991'
BP,ioos:station:wmo:42369:4,2021-07-01T08:00:00Z,27.1996,-90.2843,1343.0,5.8,358.0,-9999.0,'111111111,111111111,999999991'
BP,ioos:station:wmo:42369:4,2021-07-01T08:20:00Z,27.1996,-90.2843,1343.0,4.8,338.2,-9999.0,'111111111,111111111,999999991'
BP,ioos:station:wmo:42369:4,2021-07-01T08:40:00Z,27.1998,-90.2845,1343.0,4.7,334.5,-9999.0,'111111111,111111111,999999991'
BP,ioos:station:wmo:42369:4,2021-07-01T09:00:00Z,27.1999,-90.2846,1343.0,4.3,347.9,-9999.0,'111111111,111111111,999999991'
BP,ioos:station:wmo:42369:4,2021-07-01T09:20:00Z,27.2001,-90.2849,1343.0,4.5,358.7,-9999.0,'111111111,111111111,999999991'
BP,ioos:station:wmo:42369:4,2021-07-01T09:40:00Z,27.2001,-90.2849,1343.0,2.3,31.0,-9999.0,'111331111,111111111,999999991'
BP,ioos:station:wmo:42369:4,2021-07-01T10:00:00Z,27.2001,-90.2850,1343.0,1.9,25.2,-9999.0,'111331111,111111111,999999991'
BP,ioos:station:wmo:42369:4,2021-07-01T10:20:00Z,27.2001,-90.2850,1343.0,2.0,8.5,-9999.0,'111331111,111111111,999999991'
BP,ioos:station:wmo:42369:4,2021-07-01T10:40:00Z,27.2001,-90.2850,1343.0,1.9,32.0,-9999.0,'111331111,111111111,999999991'
BP,ioos:station:wmo:42369:4,2021-07-01T11:00:00Z,27.2000,-90.2848,1343.0,1.8,12.5,-9999.0,'111331111,111111111,999999991'
BP,ioos:station:wmo:42369:4,2021-07-01T11:20:00Z,27.2001,-90.2849,1343.0,1.7,342.6,-9999.0,'111331111,111111111,999999991'
BP,ioos:station:wmo:42369:4,2021-07-01T11:40:00Z,27.2001,-90.2849,1343.0,1.6,341.6,-9999.0,'111331111,111111111,999999991'
BP,ioos:station:wmo:42369:4,2021-07-01T12:00:00Z,27.2001,-90.2849,1343.0,1.8,26.6,-9999.0,'111331111,111111111,999999991'
BP,ioos:station:wmo:42369:4,2021-07-01T12:20:00Z,27.2004,-90.2849,1343.0,0.6,308.7,-9999.0,'111331111,111111111,999999991'
BP,ioos:station:wmo:42369:4,2021-07-01T12:40:00Z,27.2004,-90.2849,1343.0,1.8,16.4,-9999.0,'111331111,111111111,999999991'
BP,ioos:station:wmo:42369:4,2021-07-01T13:00:00Z,27.2004,-90.2839,1343.0,0.6,341.6,-9999.0,'111331111,111111111,999999991'
BP,ioos:station:wmo:42369:4,2021-07-01T13:20:00Z,27.2004,-90.2839,1343.0,2.3,347.2,-9999.0,'111331111,111111111,999999991'
BP,ioos:station:wmo:42369:4,2021-07-01T13:40:00Z,27.2004,-90.2839,1343.0,2.6,346.5,-9999.0,'111331111,111111111,999999991'
BP,ioos:station:wmo:42369:4,2021-07-01T14:00:00Z,27.2000,-90.2835,1343.0,2.6,342.3,-9999.0,'111331111,111111111,999999991'
BP,ioos:station:wmo:42369:4,2021-07-01T14:20:00Z,27.2000,-90.2833,1343.0,2.4,345.4,-9999.0,'111331111,111111111,999999991'
BP,ioos:station:wmo:42369:4,2021-07-01T14:40:00Z,27.2000,-90.2833,1343.0,2.1,2.7,-9999.0,'111331111,111111111,999999991'
BP,ioos:station:wmo:42369:4,2021-07-01T15:00:00Z,27.1999,-90.2833,1343.0,2.9,356.1,-9999.0,'111331111,111111111,999999991'
BP,ioos:station:wmo:42369:4,2021-07-01T15:20:00Z,27.1999,-90.2833,1343.0,2.6,351.3,-9999.0,'111331111,111111111,999999991'
BP,ioos:station:wmo:42369:4,2021-07-01T15:40:00Z,27.2000,-90.2830,1343.0,3.4,355.0,-9999.0,'111111111,111111111,999999991'
BP,ioos:station:wmo:42369:4,2021-07-01T16:00:00Z,27.2000,-90.2830,1343.0,4.4,357.4,-9999.0,'111111111,111111111,999999991'
BP,ioos:station:wmo:42369:4,2021-07-01T16:20:00Z,27.2000,-90.2830,1343.0,3.5,13.2,-9999.0,'111111111,111111111,999999991'
BP,ioos:station:wmo:42369:4,2021-07-01T16:40:00Z,27.1998,-90.2829,1343.0,3.4,34.2,-9999.0,'111111111,111111111,999999991'
BP,ioos:station:wmo:42369:4,2021-07-01T17:00:00Z,27.1998,-90.2829,1343.0,4.1,31.0,-9999.0,'111111111,111111111,999999991'
BP,ioos:station:wmo:42369:4,2021-07-01T17:20:00Z,27.1998,-90.2829,1343.0,3.6,37.2,-9999.0,'111111111,111111111,999999991'
BP,ioos:station:wmo:42369:4,2021-07-01T17:40:00Z,27.1998,-90.2829,1343.0,4.0,20.2,-9999.0,'111111111,111111111,999999991'
BP,ioos:station:wmo:42369:4,2021-07-01T18:00:00Z,27.1999,-90.2829,1343.0,3.7,23.8,-9999.0,'111111111,111111111,999999991'
BP,ioos:station:wmo:42369:4,2021-07-01T18:20:00Z,27.1999,-90.2829,1343.0,3.8,21.8,-9999.0,'111111111,111111111,999999991'
BP,ioos:station:wmo:42369:4,2021-07-01T18:40:00Z,27.1999,-90.2829,1343.0,3.5,18.4,-9999.0,'111111111,111111111,999999991'
BP,ioos:station:wmo:42369:4,2021-07-01T19:00:00Z,27.1999,-90.2829,1343.0,2.8,22.9,-9999.0,'111331111,111111111,999999991'
BP,ioos:station:wmo:42369:4,2021-07-01T19:20:00Z,27.2000,-90.2825,1343.0,2.3,5.0,-9999.0,'111331111,111111111,999999991'
BP,ioos:station:wmo:42369:4,2021-07-01T19:40:00Z,27.2000,-90.2825,1343.0,1.9,34.5,-9999.0,'111331111,111111111,999999991'
BP,ioos:station:wmo:42369:4,2021-07-01T20:00:00Z,27.1998,-90.2820,1343.0,2.4,14.6,-9999.0,'111331111,111111111,999999991'
BP,ioos:station:wmo:42369:4,2021-07-01T20:20:00Z,27.1998,-90.2818,1343.0,1.0,60.9,-9999.0,'111331111,111111111,999999991'
BP,ioos:station:wmo:42369:4,2021-07-01T20:40:00Z,27.1998,-90.2818,1343.0,1.3,28.6,-9999.0,'111331111,111111111,999999991'
BP,ioos:station:wmo:42369:4,2021-07-01T21:00:00Z,27.1998,-90.2818,1343.0,0.2,26.6,-9999.0,'111331111,111111111,999999991'
BP,ioos:station:wmo:42369:4,2021-07-01T21:20:00Z,27.1997,-90.2814,1343.0,0.3,198.4,-9999.0,'111331111,111111111,999999991'
BP,ioos:station:wmo:42369:4,2021-07-01T21:40:00Z,27.1997,-90.2814,1343.0,1.2,235.0,-9999.0,'111331111,111111111,999999991'
BP,ioos:station:wmo:42369:4,2021-07-01T22:00:00Z,27.1997,-90.2814,1343.0,1.4,225.0,-9999.0,'111331111,111111111,999999991'
BP,ioos:station:wmo:42369:4,2021-07-01T22:20:00Z,27.1997,-90.2814,1343.0,1.3,228.0,-9999.0,'111331111,111111111,999999991'
BP,ioos:station:wmo:42369:4,2021-07-01T22:40:00Z,27.1998,-90.2815,1343.0,0.9,249.4,-9999.0,'111331111,111111111,999999991'
BP,ioos:station:wmo:42369:4,2021-07-01T23:00:00Z,27.1998,-90.2815,1343.0,1.6,248.2,-9999.0,'111331111,111111111,999999991'
BP,ioos:station:wmo:42369:4,2021-07-01T23:20:00Z,27.1998,-90.2815,1343.0,2.4,240.3,-9999.0,'111331111,111111111,999999991'
BP,ioos:station:wmo:42369:4,2021-07-01T23:40:00Z,27.2000,-90.2814,1343.0,1.9,258.1,-9999.0,'111331111,111111111,999999991'
BP,ioos:station:wmo:42369:4,2021-07-02T00:00:00Z,27.2000,-90.2814,1343.0,3.1,275.5,-9999.0,'111111111,111111111,999999991'
BP,ioos:station:wmo:42369:4,2021-07-02T00:20:00Z,27.1998,-90.2811,1343.0,4.0,292.1,-9999.0,'111111111,111111111,999999991'
BP,ioos:station:wmo:42369:4,2021-07-02T00:40:00Z,27.1998,-90.2811,1343.0,5.3,284.3,-9999.0,'111111111,111111111,999999991'
BP,ioos:station:wmo:42369:4,2021-07-02T01:00:00Z,27.1998,-90.2811,1343.0,4.4,290.1,-9999.0,'111111111,111111111,999999991'
BP,ioos:station:wmo:42369:4,2021-07-02T01:20:00Z,27.1998,-90.2811,1343.0,5.9,286.9,-9999.0,'111111111,111111111,999999991'
BP,ioos:station:wmo:42369:4,2021-07-02T01:40:00Z,27.1997,-90.2814,1343.0,6.0,290.6,-9999.0,'111111111,111111111,999999991'
BP,ioos:station:wmo:42369:4,2021-07-02T02:00:00Z,27.1997,-90.2814,1343.0,6.0,296.6,-9999.0,'111111111,111111111,999999991'
BP,ioos:station:wmo:42369:4,2021-07-02T02:20:00Z,27.1997,-90.2817,1343.0,6.5,297.3,-9999.0,'111111111,111111111,999999991'
BP,ioos:station:wmo:42369:4,2021-07-02T02:40:00Z,27.1997,-90.2817,1343.0,7.0,301.7,-9999.0,'111111111,111111111,999999991'
BP,ioos:station:wmo:42369:4,2021-07-02T03:00:00Z,27.1997,-90.2817,1343.0,5.8,321.3,-9999.0,'111111111,111111111,999999991'
BP,ioos:station:wmo:42369:4,2021-07-02T03:20:00Z,27.1997,-90.2817,1343.0,6.0,324.5,-9999.0,'111111111,111111111,999999991'
BP,ioos:station:wmo:42369:4,2021-07-02T03:40:00Z,27.1997,-90.2818,1343.0,5.9,330.4,-9999.0,'111111111,111111111,999999991'
BP,ioos:station:wmo:42369:4,2021-07-02T04:00:00Z,27.1997,-90.2818,1343.0,7.9,332.8,-9999.0,'111111111,111111111,999999991'
BP,ioos:station:wmo:42369:4,2021-07-02T04:20:00Z,27.1997,-90.2818,1343.0,6.9,342.3,-9999.0,'111111111,111111111,999999991'
BP,ioos:station:wmo:42369:4,2021-07-02T04:40:00Z,27.1997,-90.2818,1343.0,7.3,343.3,-9999.0,'111111111,111111111,999999991'
BP,ioos:station:wmo:42369:4,2021-07-02T05:00:00Z,27.1997,-90.2818,1343.0,6.7,354.9,-9999.0,'111111111,111111111,999999991'
BP,ioos:station:wmo:42369:4,2021-07-02T05:20:00Z,27.1997,-90.2818,1343.0,7.1,350.3,-9999.0,'111111111,111111111,999999991'
BP,ioos:station:wmo:42369:4,2021-07-02T05:40:00Z,27.1997,-90.2818,1343.0,6.9,358.3,-9999.0,'111111111,111111111,999999991'
BP,ioos:station:wmo:42369:4,2021-07-02T06:00:00Z,27.1997,-90.2820,1343.0,6.0,356.2,-9999.0,'111111111,111111111,999999991'
BP,ioos:station:wmo:42369:4,2021-07-02T06:20:00Z,27.1997,-90.2821,1343.0,6.0,2.9,-9999.0,'111111111,111111111,999999991'
BP,ioos:station:wmo:42369:4,2021-07-02T06:40:00Z,27.1997,-90.2821,1343.0,6.2,2.8,-9999.0,'111111111,111111111,999999991'
BP,ioos:station:wmo:42369:4,2021-07-02T07:00:00Z,27.1997,-90.2821,1343.0,6.1,7.6,-9999.0,'111111111,111111111,999999991'
BP,ioos:station:wmo:42369:4,2021-07-02T07:20:00Z,27.1997,-90.2821,1343.0,6.2,11.1,-9999.0,'111111111,111111111,999999991'
BP,ioos:station:wmo:42369:4,2021-07-02T07:40:00Z,27.1998,-90.2823,1343.0,5.0,21.0,-9999.0,'111111111,111111111,999999991'
BP,ioos:station:wmo:42369:4,2021-07-02T08:00:00Z,27.1998,-90.2823,1343.0,4.4,25.4,-9999.0,'111111111,111111111,999999991'
BP,ioos:station:wmo:42369:4,2021-07-02T08:20:00Z,27.1998,-90.2823,1343.0,5.6,31.1,-9999.0,'111111111,111111111,999999991'
BP,ioos:station:wmo:42369:4,2021-07-02T08:40:00Z,27.1998,-90.2825,1343.0,5.2,34.0,-9999.0,'111111111,111111111,999999991'
BP,ioos:station:wmo:42369:4,2021-07-02T09:00:00Z,27.1998,-90.2825,1343.0,5.2,21.6,-9999.0,'111111111,111111111,999999991'
BP,ioos:station:wmo:42369:4,2021-07-02T09:20:00Z,27.1998,-90.2825,1343.0,4.6,15.3,-9999.0,'111111111,111111111,999999991'
BP,ioos:station:wmo:42369:4,2021-07-02T09:40:00Z,27.1998,-90.2825,1343.0,5.7,18.4,-9999.0,'111111111,111111111,999999991'
BP,ioos:station:wmo:42369:4,2021-07-02T10:00:00Z,27.1997,-90.2826,1343.0,4.3,14.7,-9999.0,'111111111,111111111,999999991'
BP,ioos:station:wmo:42369:4,2021-07-02T10:20:00Z,27.1997,-90.2826,1343.0,3.3,12.3,-9999.0,'111111111,111111111,999999991'
BP,ioos:station:wmo:42369:4,2021-07-02T10:40:00Z,27.1997,-90.2826,1343.0,3.6,19.4,-9999.0,'111111111,111111111,999999991'
BP,ioos:station:wmo:42369:4,2021-07-02T11:00:00Z,27.1997,-90.2835,1343.0,3.8,37.5,-9999.0,'111111111,111111111,999999991'
BP,ioos:station:wmo:42369:4,2021-07-02T11:20:00Z,27.1997,-90.2835,1343.0,3.3,5.2,-9999.0,'111111111,111111111,999999991'
BP,ioos:station:wmo:42369:4,2021-07-02T11:40:00Z,27.1997,-90.2835,1343.0,3.5,3.3,-9999.0,'111111111,111111111,999999991'
BP,ioos:station:wmo:42369:4,2021-07-02T12:00:00Z,27.1997,-90.2835,1343.0,4.7,358.8,-9999.0,'111111111,111111111,999999991'
BP,ioos:station:wmo:42369:4,2021-07-02T12:20:00Z,27.1997,-90.2836,1343.0,3.5,343.6,-9999.0,'111111111,111111111,999999991'
BP,ioos:station:wmo:42369:4,2021-07-02T12:40:00Z,27.1997,-90.2836,1343.0,4.0,22.1,-9999.0,'111111111,111111111,999999991'
BP,ioos:station:wmo:42369:4,2021-07-02T13:00:00Z,27.1997,-90.2836,1343.0,3.0,28.3,-9999.0,'111331111,111111111,999999991'
BP,ioos:station:wmo:42369:4,2021-07-02T13:20:00Z,27.1998,-90.2838,1343.0,2.6,29.5,-9999.0,'111331111,111111111,999999991'
BP,ioos:station:wmo:42369:4,2021-07-02T13:40:00Z,27.1998,-90.2839,1343.0,2.9,0.0,-9999.0,'111331111,111441111,999999991'
BP,ioos:station:wmo:42369:4,2021-07-02T14:00:00Z,27.1998,-90.2839,1343.0,3.2,354.6,-9999.0,'111111111,111111111,999999991'
BP,ioos:station:wmo:42369:4,2021-07-02T14:20:00Z,27.1998,-90.2838,1343.0,3.4,349.7,-9999.0,'111111111,111111111,999999991'
BP,ioos:station:wmo:42369:4,2021-07-02T14:40:00Z,27.1998,-90.2837,1343.0,4.2,334.7,-9999.0,'111111111,111111111,999999991'
BP,ioos:station:wmo:42369:4,2021-07-02T15:00:00Z,27.1998,-90.2835,1343.0,4.6,344.7,-9999.0,'111111111,111111111,999999991'
BP,ioos:station:wmo:42369:4,2021-07-02T15:20:00Z,27.1998,-90.2835,1343.0,4.8,355.2,-9999.0,'111111111,111111111,999999991'
BP,ioos:station:wmo:42369:4,2021-07-02T15:40:00Z,27.1998,-90.2835,1343.0,4.9,345.7,-9999.0,'111111111,111111111,999999991'
BP,ioos:station:wmo:42369:4,2021-07-02T16:00:00Z,27.1998,-90.2830,1343.0,4.0,7.1,-9999.0,'111111111,111111111,999999991'
BP,ioos:station:wmo:42369:4,2021-07-02T16:20:00Z,27.1998,-90.2829,1343.0,4.1,353.0,-9999.0,'111111111,111111111,999999991'
BP,ioos:station:wmo:42369:4,2021-07-02T16:40:00Z,27.1998,-90.2829,1343.0,4.4,18.4,-9999.0,'111111111,111111111,999999991'
BP,ioos:station:wmo:42369:4,2021-07-02T17:00:00Z,27.1998,-90.2829,1343.0,4.6,3.7,-9999.0,'111111111,111111111,999999991'
BP,ioos:station:wmo:42369:4,2021-07-02T17:20:00Z,27.2000,-90.2812,1343.0,5.2,353.4,-9999.0,'111111111,111111111,999999991'
BP,ioos:station:wmo:42369:4,2021-07-02T17:40:00Z,27.2000,-90.2812,1343.0,5.1,354.4,-9999.0,'111111111,111111111,999999991'
BP,ioos:station:wmo:42369:4,2021-07-02T18:00:00Z,27.2000,-90.2812,1343.0,5.2,4.4,-9999.0,'111111111,111111111,999999991'
BP,ioos:station:wmo:42369:4,2021-07-02T18:20:00Z,27.2000,-90.2807,1343.0,4.3,358.7,-9999.0,'111111111,111111111,999999991'
BP,ioos:station:wmo:42369:4,2021-07-02T18:40:00Z,27.2000,-90.2807,1343.0,4.8,357.6,-9999.0,'111111111,111111111,999999991'
BP,ioos:station:wmo:42369:4,2021-07-02T19:00:00Z,27.2000,-90.2805,1343.0,4.7,4.9,-9999.0,'111111111,111111111,999999991'
BP,ioos:station:wmo:42369:4,2021-07-02T19:20:00Z,27.2000,-90.2805,1343.0,5.3,18.8,-9999.0,'111111111,111111111,999999991'
BP,ioos:station:wmo:42369:4,2021-07-02T19:40:00Z,27.2000,-90.2802,1343.0,4.2,12.4,-9999.0,'111111111,111111111,999999991'
BP,ioos:station:wmo:42369:4,2021-07-02T20:00:00Z,27.2000,-90.2802,1343.0,4.2,357.3,-9999.0,'111111111,111111111,999999991'
BP,ioos:station:wmo:42369:4,2021-07-02T20:20:00Z,27.2001,-90.2801,1343.0,4.3,358.7,-9999.0,'111111111,111111111,999999991'
BP,ioos:station:wmo:42369:4,2021-07-02T20:40:00Z,27.2001,-90.2801,1343.0,5.6,348.7,-9999.0,'111111111,111111111,999999991'
BP,ioos:station:wmo:42369:4,2021-07-02T21:00:00Z,27.2000,-90.2798,1343.0,5.8,352.0,-9999.0,'111111111,111111111,999999991'
BP,ioos:station:wmo:42369:4,2021-07-02T21:20:00Z,27.2000,-90.2798,1343.0,5.1,353.3,-9999.0,'111111111,111111111,999999991'
BP,ioos:station:wmo:42369:4,2021-07-02T21:40:00Z,27.1999,-90.2798,1343.0,6.5,350.2,-9999.0,'111111111,111111111,999999991'
BP,ioos:station:wmo:42369:4,2021-07-02T22:00:00Z,27.1999,-90.2798,1343.0,6.8,0.0,-9999.0,'111111111,111441111,999999991'
BP,ioos:station:wmo:42369:4,2021-07-02T22:20:00Z,27.1999,-90.2799,1343.0,7.0,9.9,-9999.0,'111111111,111111111,999999991'
BP,ioos:station:wmo:42369:4,2021-07-02T22:40:00Z,27.1999,-90.2799,1343.0,6.5,9.8,-9999.0,'111111111,111111111,999999991'
BP,ioos:station:wmo:42369:4,2021-07-02T23:00:00Z,27.1998,-90.2801,1343.0,6.2,2.8,-9999.0,'111111111,111111111,999999991'
BP,ioos:station:wmo:42369:4,2021-07-02T23:20:00Z,27.1997,-90.2802,1343.0,6.0,22.7,-9999.0,'111111111,111111111,999999991'
BP,ioos:station:wmo:42369:4,2021-07-02T23:40:00Z,27.1997,-90.2802,1343.0,5.1,19.5,-9999.0,'111111111,111111111,999999991'
BP,ioos:station:wmo:42369:4,2021-07-03T00:00:00Z,27.1997,-90.2802,1343.0,4.7,18.4,-9999.0,'111111111,111111111,999999991'
BP,ioos:station:wmo:42369:4,2021-07-03T00:20:00Z,27.1996,-90.2806,1343.0,3.6,23.0,-9999.0,'111111111,111111111,999999991'
BP,ioos:station:wmo:42369:4,2021-07-03T00:40:00Z,27.1996,-90.2806,1343.0,5.2,7.7,-9999.0,'111111111,111111111,999999991'
BP,ioos:station:wmo:42369:4,2021-07-03T01:00:00Z,27.1996,-90.2805,1343.0,5.1,353.3,-9999.0,'111111111,111111111,999999991'
BP,ioos:station:wmo:42369:4,2021-07-03T01:20:00Z,27.1996,-90.2805,1343.0,5.4,1.1,-9999.0,'111111111,111111111,999999991'
BP,ioos:station:wmo:42369:4,2021-07-03T01:40:00Z,27.1996,-90.2805,1343.0,5.8,4.9,-9999.0,'111111111,111111111,999999991'
BP,ioos:station:wmo:42369:4,2021-07-03T02:00:00Z,27.1995,-90.2808,1343.0,4.3,7.9,-9999.0,'111111111,111111111,999999991'
BP,ioos:station:wmo:42369:4,2021-07-03T02:20:00Z,27.1995,-90.2808,1343.0,4.0,354.3,-9999.0,'111111111,111111111,999999991'
BP,ioos:station:wmo:42369:4,2021-07-03T02:40:00Z,27.1995,-90.2808,1343.0,3.3,349.4,-9999.0,'111111111,111111111,999999991'
BP,ioos:station:wmo:42369:4,2021-07-03T03:00:00Z,27.1995,-90.2817,1343.0,3.8,354.0,-9999.0,'111111111,111111111,999999991'
BP,ioos:station:wmo:42369:4,2021-07-03T03:20:00Z,27.1995,-90.2817,1343.0,4.5,2.5,-9999.0,'111111111,111111111,999999991'
BP,ioos:station:wmo:42369:4,2021-07-03T03:40:00Z,27.1995,-90.2817,1343.0,4.3,9.5,-9999.0,'111111111,111111111,999999991'
BP,ioos:station:wmo:42369:4,2021-07-03T04:00:00Z,27.1995,-90.2818,1343.0,3.6,347.1,-9999.0,'111111111,111111111,999999991'
BP,ioos:station:wmo:42369:4,2021-07-03T04:20:00Z,27.1995,-90.2819,1343.0,2.9,344.1,-9999.0,'111331111,111111111,999999991'
BP,ioos:station:wmo:42369:4,2021-07-03T04:40:00Z,27.1995,-90.2819,1343.0,3.9,355.6,-9999.0,'111111111,111111111,999999991'
BP,ioos:station:wmo:42369:4,2021-07-03T05:00:00Z,27.1995,-90.2819,1343.0,3.2,3.6,-9999.0,'111111111,111111111,999999991'
BP,ioos:station:wmo:42369:4,2021-07-03T05:20:00Z,27.1995,-90.2823,1343.0,3.7,353.8,-9999.0,'111111111,111111111,999999991'
BP,ioos:station:wmo:42369:4,2021-07-03T05:40:00Z,27.1995,-90.2823,1343.0,3.8,0.0,-9999.0,'111111111,111441111,999999991'
BP,ioos:station:wmo:42369:4,2021-07-03T06:00:00Z,27.1995,-90.2823,1343.0,3.2,345.5,-9999.0,'111111111,111111111,999999991'
BP,ioos:station:wmo:42369:4,2021-07-03T06:20:00Z,27.1995,-90.2823,1343.0,1.3,333.4,-9999.0,'111331111,111111111,999999991'
BP,ioos:station:wmo:42369:4,2021-07-03T06:40:00Z,27.1995,-90.2825,1343.0,2.5,301.8,-9999.0,'111331111,111111111,999999991'
BP,ioos:station:wmo:42369:4,2021-07-03T07:00:00Z,27.1994,-90.2824,1343.0,2.8,272.0,-9999.0,'111331111,111111111,999999991'
BP,ioos:station:wmo:42369:4,2021-07-03T07:20:00Z,27.1994,-90.2824,1343.0,2.6,259.1,-9999.0,'111331111,111111111,999999991'
BP,ioos:station:wmo:42369:4,2021-07-03T07:40:00Z,27.1994,-90.2824,1343.0,1.9,312.9,-9999.0,'111331111,111111111,999999991'
BP,ioos:station:wmo:42369:4,2021-07-03T08:00:00Z,27.1995,-90.2817,1343.0,1.2,284.0,-9999.0,'111331111,111111111,999999991'
BP,ioos:station:wmo:42369:4,2021-07-03T08:20:00Z,27.1995,-90.2817,1343.0,1.3,283.0,-9999.0,'111331111,111111111,999999991'
BP,ioos:station:wmo:42369:4,2021-07-03T08:40:00Z,27.1995,-90.2817,1343.0,1.2,346.0,-9999.0,'111331111,111111111,999999991'
BP,ioos:station:wmo:42369:4,2021-07-03T09:00:00Z,27.1996,-90.2814,1343.0,0.7,0.0,-9999.0,'111331111,111441111,999999991'
BP,ioos:station:wmo:42369:4,2021-07-03T09:20:00Z,27.1996,-90.2814,1343.0,1.8,321.8,-9999.0,'111331111,111111111,999999991'
BP,ioos:station:wmo:42369:4,2021-07-03T09:40:00Z,27.1996,-90.2814,1343.0,1.3,351.3,-9999.0,'111331111,111111111,999999991'
BP,ioos:station:wmo:42369:4,2021-07-03T10:00:00Z,27.1996,-90.2815,1343.0,1.0,336.0,-9999.0,'111331111,111111111,999999991'
BP,ioos:station:wmo:42369:4,2021-07-03T10:20:00Z,27.1996,-90.2815,1343.0,1.7,324.5,-9999.0,'111331111,111111111,999999991'
BP,ioos:station:wmo:42369:4,2021-07-03T10:40:00Z,27.1996,-90.2815,1343.0,2.0,0.0,-9999.0,'111331111,111441111,999999991'
BP,ioos:station:wmo:42369:4,2021-07-03T11:00:00Z,27.1996,-90.2813,1343.0,1.3,32.5,-9999.0,'111331111,111111111,999999991'
BP,ioos:station:wmo:42369:4,2021-07-03T11:20:00Z,27.1996,-90.2813,1343.0,1.2,274.8,-9999.0,'111331111,111111111,999999991'
BP,ioos:station:wmo:42369:4,2021-07-03T11:40:00Z,27.1996,-90.2813,1343.0,1.4,326.3,-9999.0,'111331111,111111111,999999991'
BP,ioos:station:wmo:42369:4,2021-07-03T12:00:00Z,27.1995,-90.2812,1343.0,1.0,258.7,-9999.0,'111331111,111111111,999999991'
BP,ioos:station:wmo:42369:4,2021-07-03T12:20:00Z,27.1995,-90.2812,1343.0,0.5,270.0,-9999.0,'111331111,111111111,999999991'
BP,ioos:station:wmo:42369:4,2021-07-03T12:40:00Z,27.1995,-90.2812,1343.0,0.9,270.0,-9999.0,'111331111,111111111,999999991'
BP,ioos:station:wmo:42369:4,2021-07-03T13:00:00Z,27.1995,-90.2813,1343.0,2.4,253.1,-9999.0,'111331111,111111111,999999991'
BP,ioos:station:wmo:42369:4,2021-07-03T13:20:00Z,27.1996,-90.2813,1343.0,2.2,248.2,-9999.0,'111331111,111111111,999999991'
BP,ioos:station:wmo:42369:4,2021-07-03T13:40:00Z,27.1996,-90.2813,1343.0,1.3,261.3,-9999.0,'111331111,111111111,999999991'
BP,ioos:station:wmo:42369:4,2021-07-03T14:00:00Z,27.1996,-90.2813,1343.0,0.9,276.3,-9999.0,'111331111,111111111,999999991'
BP,ioos:station:wmo:42369:4,2021-07-03T14:20:00Z,27.1996,-90.2813,1343.0,1.8,326.3,-9999.0,'111331111,111111111,999999991'
BP,ioos:station:wmo:42369:4,2021-07-03T14:40:00Z,27.1996,-90.2807,1343.0,1.3,337.4,-9999.0,'111331111,111111111,999999991'
BP,ioos:station:wmo:42369:4,2021-07-03T15:00:00Z,27.1996,-90.2807,1343.0,1.5,0.0,-9999.0,'111331111,111441111,999999991'
BP,ioos:station:wmo:42369:4,2021-07-03T15:20:00Z,27.1996,-90.2807,1343.0,0.5,291.8,-9999.0,'111331111,111111111,999999991'
BP,ioos:station:wmo:42369:4,2021-07-03T15:40:00Z,27.1999,-90.2801,1343.0,1.1,354.8,-9999.0,'111331111,111111111,999999991'
BP,ioos:station:wmo:42369:4,2021-07-03T16:00:00Z,27.1999,-90.2801,1343.0,1.3,283.0,-9999.0,'111331111,111111111,999999991'